[[{"header":{"parameterUnit":"m.s-1","parameterCategory":1,"la1":30.2991,"la2":30.254,"lo1":-89.0895,"lo2":-89.0444,"dy":0.0017,"dx":0.0017,"nx":28,"ny":28,"refTime":"2024-03-13T03:00:00:Z","depth":0,"parameterNumber":2,"parameterNumberName":"U-component_of_WINDS"},"data":[0,0,0,0,0,0,0,0,0,0,0,0,0,0,0,0,0,0,0,0,0,0,0,0,0,0,0,0,0,0,0,0,0,0,0,0,0,0,0,0,0,0,0,0,0,0,0,0,0,0,0,0,0,0,0,0,0,0,-2.0134,-2.0134,0,-2.0133,-2.0133,-2.0133,-2.0113,-2.0112,-2.0112,-2.0111,-2.0112,-2.0112,-2.0113,0,0,0,0,0,0,0,0,0,0,0,0,0,-2.012,-2.0121,-2.0134,-2.0134,-2.0134,-2.0133,-2.0133,-2.0133,-2.0113,-2.0112,-2.0112,-2.0111,-2.0111,-2.0112,-2.0113,0,0,0,0,0,0,0,0,0,0,0,0,0,-2.0124,-2.0121,-2.0134,-2.0124,-2.0123,-2.0133,-2.0133,-2.0133,-2.0113,-2.0112,-2.0112,-2.0111,-2.0111,-2.0112,-2.0113,-2.0133,0,0,-2.0115,-2.0115,0,0,0,0,0,0,0,0,-2.0123,-2.0124,-2.0125,-2.0124,-2.0123,-2.0122,-2.0128,-2.0133,-2.0113,-2.0117,-2.0111,-2.011,-2.0116,-2.0116,-2.0118,-2.0133,-2.0133,-2.0115,-2.0115,-2.0116,-2.0116,0,0,0,0,0,0,0,-2.0123,-2.0124,-2.0134,-2.0125,-2.0124,-2.012,-2.012,-2.0129,-2.0121,-2.0117,-2.0115,-2.0115,-2.0115,-2.0117,-2.0118,-2.0133,-2.0115,-2.0116,-2.0116,-2.0116,-2.0166,-2.0167,0,0,0,0,0,0,-2.0124,-2.0124,-2.0134,-2.0134,-2.0122,-2.0121,-2.012,-2.0123,-2.0121,-2.0119,-2.0116,-2.0114,-2.0116,-2.0117,-2.0117,-2.0142,-2.0116,-2.0116,-2.0117,-2.0165,-2.0166,-2.0167,0,0,0,0,0,0,-2.0124,-2.0125,-2.0134,-2.0128,-2.0129,-2.0122,-2.0126,-2.0124,-2.0126,-2.012,-2.0119,-2.0119,-2.0116,-2.0116,-2.0129,-2.0142,-2.0117,-2.0117,-2.0164,-2.0165,-2.0167,-2.019,0,0,0,0,0,0,-2.0124,-2.0125,-2.0132,-2.0129,-2.0129,-2.0145,-2.0126,-2.0124,-2.0127,-2.0125,-2.0123,-2.0122,-2.0115,-2.0128,-2.013,-2.0142,-2.0118,-2.0163,-2.0165,-2.0166,-2.0188,-2.0192,-2.0196,0,0,0,0,0,-2.0123,-2.0139,-2.0133,-2.0134,-2.0138,-2.0146,-2.0146,-2.0138,-2.0128,-2.0135,-2.0132,-2.0122,-2.014,-2.013,-2.0132,-2.0144,-2.0162,-2.0164,-2.0166,-2.0187,-2.0191,-2.0195,0,0,0,0,0,0,-2.0144,-2.0138,-2.0131,-2.0146,-2.0147,-2.0142,-2.0151,-2.0143,-2.0147,-2.0144,-2.0134,-2.0134,-2.0149,-2.0148,-2.0137,-2.0164,-2.0149,-2.0152,-2.0164,-2.0169,-2.0172,-2.0173,-2.0119,0,0,0,0,0,-2.0151,-2.0157,-2.0151,-2.0165,-2.0166,-2.0159,-2.0162,-2.0155,-2.0155,-2.0156,-2.0153,-2.0154,-2.016,-2.0164,-2.0169,-2.0188,-2.0188,-2.0198,-2.0201,-2.0204,-2.0207,-2.0218,-2.0222,-2.0173,-2.0173,-2.0173,0,0,-2.0164,-2.0161,-2.0166,-2.0169,-2.0169,-2.0176,-2.0159,-2.0167,-2.0173,-2.0157,-2.0169,-2.0168,-2.0168,-2.0184,-2.0191,-2.0184,-2.022,-2.0207,-2.0209,-2.021,-2.022,-2.0225,-2.0229,-2.0175,-2.0175,-2.0174,0,0,-2.0192,-2.019,-2.0202,-2.0202,-2.0202,-2.0197,-2.02,-2.0197,-2.0196,-2.0208,-2.0196,-2.0203,-2.0213,-2.0215,-2.0217,-2.0247,-2.0238,-2.0249,-2.0268,-2.0279,-2.0282,-2.0286,-2.0298,-2.0302,-2.0251,-2.0251,-2.0251,0,-2.0209,-2.0219,-2.0209,-2.0219,-2.0221,-2.0207,-2.022,-2.022,-2.0222,-2.0224,-2.0215,-2.0229,-2.0228,-2.0245,-2.0253,-2.0254,-2.0258,-2.0249,-2.0282,-2.0286,-2.0289,-2.03,-2.0304,-2.0252,-2.0252,-2.0252,-2.0252,0,-2.024,-2.0248,-2.0257,-2.0259,-2.0263,-2.0274,-2.0266,-2.0271,-2.0265,-2.0261,-2.0275,-2.0273,-2.0279,-2.0282,-2.0276,-2.0299,-2.0294,-2.0284,-2.0269,-2.0295,-2.0306,-2.031,-2.0254,-2.0254,-2.0253,-2.0253,0,0,-2.0282,-2.0278,-2.0282,-2.0284,-2.0283,-2.0289,-2.0299,-2.0304,-2.0309,-2.0311,-2.0321,-2.033,-2.0321,-2.0324,-2.0317,-2.0327,-2.0352,-2.0316,-2.0316,-2.0324,-2.0379,-2.0387,-2.0392,-2.0346,-2.0347,-2.0348,-2.0379,0,-2.031,-2.0328,-2.032,-2.0339,-2.0347,-2.0334,-2.0343,-2.0344,-2.0341,-2.0348,-2.0345,-2.0352,-2.0339,-2.0341,-2.035,-2.0347,-2.0363,-2.0345,-2.0356,-2.0357,-2.0357,-2.0398,-2.0406,-2.0436,-2.0383,-2.0384,-2.0384,0,-2.0345,-2.0348,-2.0368,-2.0367,-2.037,-2.0379,-2.0383,-2.0389,-2.0391,-2.0388,-2.0391,-2.0383,-2.0395,-2.0379,-2.0396,-2.0383,-2.0388,-2.0387,-2.0388,-2.039,-2.0373,-2.0401,-2.0445,-2.045,-2.039,-2.039,-2.039,0,-2.0375,-2.0384,-2.0398,-2.0399,-2.0398,-2.0404,-2.0404,-2.0405,-2.0408,-2.0413,-2.0415,-2.0421,-2.0424,-2.0429,-2.0423,-2.0412,-2.0441,-2.0425,-2.044,-2.044,-2.0447,-2.0447,-2.0494,-2.0448,-2.0448,-2.0448,-2.0448,0,-2.0408,-2.0421,-2.0411,-2.042,-2.0435,-2.0426,-2.0441,-2.0439,-2.044,-2.0448,-2.0437,-2.0445,-2.0437,-2.0445,-2.044,-2.0455,-2.0456,-2.0455,-2.0454,-2.0457,-2.0457,-2.046,-2.0459,-2.0449,-2.0449,-2.0449,-2.0449,0,-2.0444,-2.0438,-2.0452,-2.045,-2.0449,-2.0461,-2.0459,-2.0467,-2.0464,-2.0475,-2.0477,-2.0472,-2.0481,-2.0475,-2.0484,-2.0481,-2.0501,-2.0496,-2.0501,-2.05,-2.0516,-2.0515,-2.0567,-2.0574,-2.0523,-2.0524,-2.0524,0,-2.0466,-2.0476,-2.0475,-2.048,-2.048,-2.0488,-2.0492,-2.0484,-2.0488,-2.0491,-2.0499,-2.0507,-2.0513,-2.0528,-2.0526,-2.0533,-2.0529,-2.0547,-2.053,-2.0533,-2.0531,-2.0531,-2.0532,-2.055,-2.0551,-2.0551,-2.0552,0,-2.0507,-2.0503,-2.0509,-2.0515,-2.052,-2.0523,-2.0526,-2.0531,-2.0523,-2.0529,-2.0538,-2.0543,-2.0552,-2.056,-2.0566,-2.0567,-2.0559,-2.0557,-2.0561,-2.0565,-2.0567,-2.0567,-2.0511,-2.0556,-2.0556,-2.0555,-2.0555,-2.0555,-2.0537,-2.0546,-2.0547,-2.0554,-2.0555,-2.0559,-2.0567,-2.0564,-2.0571,-2.0578,-2.0573,-2.0584,-2.0586,-2.0593,-2.0595,-2.0604,-2.0597,-2.0602,-2.0604,-2.0606,-2.0609,-2.0565,-2.0605,-2.0605,-2.0604,-2.0604,-2.0604,0,-2.0578,-2.0578,-2.0585,-2.059,-2.0596,-2.0587,-2.059,-2.0596,-2.0605,-2.0608,-2.0614,-2.0625,-2.0633,-2.0631,-2.0639,-2.0646,-2.0643,-2.0649,-2.0649,-2.0649,-2.0614,-2.061,-2.0652,-2.0652,-2.0652,-2.0652,-2.0652,-2.0652,-2.06,-2.0615,-2.0612,-2.0627,-2.0627,-2.0638,-2.064,-2.0644,-2.0646,-2.0658,-2.0665,-2.0663,-2.0665,-2.0672,-2.068,-2.0679,-2.0683,-2.0691,-2.0689,-2.0656,-2.0652,-2.0647,-2.0644,-2.0692,-2.0692,-2.0724,-2.0724,-2.0725]},{"header":{"parameterUnit":"m.s-1","parameterCategory":1,"la1":30.2991,"la2":30.254,"lo1":-89.0895,"lo2":-89.0444,"dy":0.0017,"dx":0.0017,"nx":28,"ny":28,"refTime":"2024-03-13T03:00:00:Z","depth":0,"parameterNumber":3,"parameterNumberName":"V-component_of_WINDS"},"data":[0,0,0,0,0,0,0,0,0,0,0,0,0,0,0,0,0,0,0,0,0,0,0,0,0,0,0,0,0,0,0,0,0,0,0,0,0,0,0,0,0,0,0,0,0,0,0,0,0,0,0,0,0,0,0,0,0,0,3.1293,3.1294,0,3.1319,3.132,3.132,3.135,3.1351,3.1351,3.1352,3.1377,3.1377,3.1378,0,0,0,0,0,0,0,0,0,0,0,0,0,3.1269,3.127,3.1293,3.1294,3.1294,3.1319,3.132,3.132,3.135,3.1351,3.1351,3.1352,3.1377,3.1377,3.1378,0,0,0,0,0,0,0,0,0,0,0,0,0,3.1286,3.127,3.1293,3.1312,3.1314,3.1319,3.132,3.132,3.135,3.1351,3.1351,3.1352,3.1377,3.1377,3.1378,3.1366,0,0,3.1379,3.1379,0,0,0,0,0,0,0,0,3.1285,3.1287,3.1309,3.1311,3.1313,3.1332,3.1321,3.1336,3.135,3.1336,3.1352,3.1352,3.1362,3.1363,3.1367,3.1367,3.1368,3.1379,3.1379,3.1379,3.1379,0,0,0,0,0,0,0,3.1284,3.1286,3.1304,3.1309,3.1312,3.1319,3.1322,3.1324,3.1345,3.1338,3.134,3.1343,3.1363,3.1366,3.1367,3.1369,3.1379,3.1379,3.1379,3.138,3.1363,3.1363,0,0,0,0,0,0,3.128,3.1285,3.1303,3.1304,3.13,3.1319,3.1323,3.1325,3.1345,3.1348,3.1342,3.1344,3.1365,3.1367,3.1368,3.1358,3.1379,3.138,3.138,3.1364,3.1363,3.1363,0,0,0,0,0,0,3.1279,3.1281,3.1302,3.1295,3.1298,3.1319,3.1322,3.1326,3.1329,3.1348,3.1352,3.1342,3.1366,3.1368,3.1367,3.1359,3.138,3.138,3.1365,3.1364,3.1363,3.1335,0,0,0,0,0,0,3.1278,3.1281,3.1277,3.1295,3.1299,3.13,3.1321,3.1326,3.133,3.1333,3.1349,3.1352,3.1366,3.1366,3.1367,3.136,3.138,3.1366,3.1364,3.1363,3.1337,3.1333,3.133,0,0,0,0,0,3.1277,3.1267,3.1276,3.1278,3.1294,3.1299,3.1302,3.1319,3.1329,3.1325,3.1338,3.1352,3.1359,3.1366,3.1367,3.136,3.1366,3.1365,3.1363,3.1338,3.1334,3.133,0,0,0,0,0,0,3.1247,3.127,3.128,3.1275,3.1285,3.1304,3.13,3.1313,3.132,3.1322,3.1343,3.1346,3.1343,3.1351,3.1358,3.1351,3.1365,3.1364,3.1346,3.1342,3.1338,3.1337,3.1381,0,0,0,0,0,3.1239,3.1242,3.1262,3.1256,3.1261,3.1279,3.1282,3.1295,3.1306,3.131,3.1322,3.1332,3.1337,3.1339,3.1345,3.1338,3.1343,3.1334,3.133,3.1328,3.1326,3.1325,3.1322,3.1358,3.1358,3.1358,0,0,3.1224,3.1237,3.1238,3.125,3.1259,3.1262,3.1283,3.1284,3.1286,3.131,3.131,3.132,3.1332,3.1329,3.1328,3.1335,3.1317,3.1326,3.1323,3.1324,3.1323,3.132,3.1317,3.1357,3.1357,3.1357,0,0,3.1198,3.1208,3.1205,3.1214,3.1228,3.124,3.124,3.1257,3.1265,3.1265,3.1284,3.1286,3.1294,3.1303,3.1308,3.1286,3.13,3.1287,3.127,3.1269,3.1266,3.1263,3.1257,3.1254,3.1286,3.1286,3.1286,0,3.1178,3.1182,3.1201,3.1202,3.1208,3.123,3.1227,3.1235,3.1249,3.1253,3.1261,3.1272,3.1282,3.1281,3.1276,3.1279,3.128,3.1286,3.1265,3.1263,3.1261,3.1255,3.1252,3.1284,3.1285,3.1285,3.1285,0,3.1157,3.116,3.1156,3.1171,3.1175,3.1174,3.1193,3.1196,3.1208,3.122,3.1221,3.1234,3.1243,3.1244,3.1255,3.1245,3.125,3.1261,3.1276,3.1255,3.125,3.1248,3.1282,3.1283,3.1283,3.1284,0,0,3.1112,3.1138,3.1136,3.1144,3.1161,3.1164,3.1164,3.1174,3.1176,3.1186,3.1187,3.1193,3.1205,3.1211,3.1223,3.1222,3.1206,3.1234,3.1234,3.1229,3.1197,3.1189,3.1186,3.1215,3.1214,3.1214,3.1196,0,3.109,3.1093,3.111,3.1107,3.1111,3.1133,3.1133,3.1144,3.1155,3.116,3.1173,3.1177,3.1191,3.1195,3.1194,3.1208,3.12,3.1209,3.1216,3.1216,3.1214,3.1183,3.1174,3.1157,3.1194,3.1194,3.1194,0,3.1065,3.1074,3.1072,3.1091,3.1093,3.1093,3.1104,3.1108,3.1121,3.1129,3.1137,3.1151,3.1153,3.1167,3.1171,3.1177,3.1181,3.1188,3.1187,3.1189,3.1204,3.1185,3.1152,3.115,3.1191,3.1191,3.1191,0,3.1034,3.1045,3.1046,3.1052,3.1073,3.1073,3.1082,3.1096,3.1101,3.111,3.1114,3.1123,3.1128,3.1135,3.1152,3.116,3.1154,3.1168,3.1161,3.1161,3.116,3.116,3.1128,3.1161,3.1161,3.1161,3.1161,0,3.1008,3.1006,3.1033,3.1033,3.1032,3.1052,3.1051,3.1061,3.1074,3.1077,3.1096,3.1098,3.112,3.1125,3.1139,3.114,3.1142,3.1149,3.1153,3.1148,3.1148,3.1152,3.1154,3.116,3.116,3.116,3.116,0,3.0974,3.0991,3.0994,3.1014,3.1019,3.1018,3.1035,3.1037,3.105,3.1054,3.1056,3.1076,3.1083,3.1101,3.1112,3.1121,3.112,3.1126,3.1115,3.1118,3.111,3.1111,3.1081,3.1078,3.1112,3.1111,3.1111,0,3.0957,3.0956,3.0977,3.098,3.0989,3.0994,3.1,3.102,3.1025,3.104,3.104,3.1049,3.1057,3.1068,3.1084,3.1093,3.11,3.1089,3.1102,3.1097,3.1101,3.1102,3.1102,3.1086,3.1086,3.1085,3.1085,0,3.0925,3.0934,3.0941,3.0952,3.0958,3.0968,3.0978,3.098,3.1002,3.1007,3.1015,3.1022,3.1034,3.1043,3.1055,3.1065,3.1079,3.1081,3.108,3.1075,3.107,3.1074,3.1109,3.1082,3.1082,3.1082,3.1082,3.1083,3.0899,3.09,3.0915,3.0923,3.0933,3.0943,3.0946,3.0959,3.0967,3.0979,3.099,3.0997,3.1011,3.1029,3.1037,3.1044,3.1051,3.1049,3.1049,3.1048,3.1047,3.1068,3.1046,3.1046,3.1046,3.1046,3.1046,0,3.0869,3.088,3.0888,3.0902,3.0909,3.0922,3.0934,3.0939,3.0945,3.0957,3.0965,3.0975,3.0984,3.1001,3.1012,3.1013,3.102,3.1016,3.1016,3.1018,3.1039,3.104,3.101,3.101,3.101,3.101,3.101,3.101,3.0855,3.0858,3.0868,3.0877,3.0888,3.0895,3.0901,3.0911,3.0921,3.0931,3.0939,3.095,3.0964,3.0976,3.0985,3.099,3.0993,3.0987,3.0994,3.1013,3.1017,3.102,3.102,3.0987,3.0987,3.0973,3.0972,3.0972]}]]